Location: Bacharowice
(49.9333°N, 19.5833°E)
Time: 22:04:42
(UTC+00:00)

Cosmos 1703 Rocket - Pass Details

Date: 11 May 2021
Orbit: 606 x 633 km, 82.5° (Epoch: 20 June)

Event Time Altitude Azimuth Distance (km) Brightness Sun altitude
Exits shadow 22:11:43 58° 131° (SE) 722 3.6 -21.7°
Maximum altitude 22:12:12 63° 96° (E) 692 3.6 -21.7°
Drops below altitude 10° 22:16:34 10° 16° (NNE) 2,001 7.1 -21.8°
Sets 22:18:50 0° 13° (NNE) 2,917 8.3 -21.8°
